When you browse on this site, cookies collect data to enhance your experience and personalize the content and advertising you see.
Visit our Privacy Policy to learn more. By continuing to use the site, you agree to this use of cookies and data.
  • Em Portugal
  • Lista de países
  • Para 7 dias
  • Temperatura da água
  • Mapas de satélite
  • Mapa do tempo
  • Widgets de tempo
  • user-avatar
    Iniciar Sessão

    Previsão horária em Pamporovo

    Hoje, 25 Março, Segunda-feira

    Tempo Temperatura Precipitação Vento Pressão Humidade
    00:00 +1°C° 0 mm 1 m/s 624 mmHg 66%
    01:00 +1°C° 0 mm 1 m/s 623 mmHg 65%
    02:00 +1°C° 0 mm 1 m/s 623 mmHg 62%
    03:00 +1°C° 0 mm 1 m/s 623 mmHg 62%
    04:00 +1°C° 0 mm 1 m/s 622 mmHg 61%
    05:00 0°C° 0 mm 1 m/s 622 mmHg 61%
    06:00 +2°C° 0 mm 1 m/s 622 mmHg 59%
    07:00 +3°C° 0 mm 1 m/s 623 mmHg 56%
    08:00 +6°C° 0 mm 1 m/s 623 mmHg 56%
    09:00 +8°C° 0 mm 1 m/s 624 mmHg 51%
    10:00 +10°C° 0 mm 1 m/s 624 mmHg 45%
    11:00 +12°C° 0 mm 1 m/s 625 mmHg 40%
    12:00 +12°C° 0 mm 1 m/s 625 mmHg 41%
    13:00 +13°C° 0 mm 1 m/s 624 mmHg 42%
    14:00 +13°C° 0 mm 2 m/s 624 mmHg 43%
    15:00 +12°C° 0 mm 1 m/s 623 mmHg 49%
    16:00 +11°C° 0 mm 1 m/s 622 mmHg 56%
    17:00 +9°C° 0 mm 1 m/s 621 mmHg 62%
    18:00 +8°C° 0 mm 1 m/s 620 mmHg 71%
    19:00 +6°C° 0 mm 1 m/s 620 mmHg 79%
    20:00 +4°C° 0 mm 1 m/s 619 mmHg 88%
    21:00 +4°C° 0.1 mm 1 m/s 619 mmHg 87%
    22:00 +5°C° 0.1 mm 1 m/s 619 mmHg 86%
    23:00 +5°C° 0.1 mm 1 m/s 619 mmHg 85%

    Amanhã, 26 Março, Terça-feira

    Tempo Temperatura Precipitação Vento Pressão Humidade
    00:00 +5°C° 0.1 mm 1 m/s 619 mmHg 85%
    01:00 +3°C° 0.1 mm 0 m/s 619 mmHg 84%
    02:00 +3°C° 0.1 mm 0 m/s 619 mmHg 84%
    03:00 +3°C° 0.2 mm 0 m/s 619 mmHg 85%
    04:00 +3°C° 0.2 mm 0 m/s 619 mmHg 86%
    05:00 +3°C° 0.2 mm 0 m/s 619 mmHg 86%
    06:00 +3°C° 0.2 mm 0 m/s 619 mmHg 84%
    07:00 +5°C° 0.2 mm 1 m/s 620 mmHg 81%
    08:00 +6°C° 0.2 mm 1 m/s 621 mmHg 79%
    09:00 +7°C° 0.4 mm 1 m/s 621 mmHg 74%
    10:00 +7°C° 0.4 mm 1 m/s 621 mmHg 70%
    11:00 +7°C° 0.4 mm 2 m/s 622 mmHg 65%
    12:00 +7°C° 0.7 mm 2 m/s 622 mmHg 67%
    13:00 +6°C° 0.7 mm 2 m/s 622 mmHg 69%
    14:00 +6°C° 0.7 mm 2 m/s 621 mmHg 70%
    15:00 +5°C° 1.5 mm 2 m/s 621 mmHg 76%
    16:00 +4°C° 1.5 mm 2 m/s 621 mmHg 81%
    17:00 +3°C° 1.5 mm 2 m/s 620 mmHg 87%
    18:00 +3°C° 1.1 mm 2 m/s 621 mmHg 88%
    19:00 +2°C° 1.1 mm 2 m/s 621 mmHg 90%
    20:00 +3°C° 1.1 mm 1 m/s 622 mmHg 91%
    21:00 +2°C° 0.6 mm 1 m/s 622 mmHg 90%
    22:00 +2°C° 0.6 mm 1 m/s 622 mmHg 90%
    23:00 +2°C° 0.6 mm 1 m/s 623 mmHg 89%

    Depois de amanhã, 27 Março, Quarta-feira

    Tempo Temperatura Precipitação Vento Pressão Humidade
    00:00 +2°C° 0.3 mm 1 m/s 623 mmHg 88%
    01:00 +1°C° 0.3 mm 1 m/s 623 mmHg 87%
    02:00 +1°C° 0.3 mm 1 m/s 623 mmHg 86%
    03:00 0°C° 0.1 mm 1 m/s 623 mmHg 85%
    04:00 0°C° 0.1 mm 1 m/s 623 mmHg 83%
    05:00 -1°C° 0.1 mm 1 m/s 623 mmHg 82%
    06:00 0°C° 0 mm 1 m/s 623 mmHg 79%
    07:00 +1°C° 0 mm 1 m/s 624 mmHg 75%
    08:00 +1°C° 0 mm 1 m/s 625 mmHg 71%
    09:00 +3°C° 0 mm 1 m/s 625 mmHg 67%
    10:00 +4°C° 0 mm 1 m/s 626 mmHg 63%
    11:00 +5°C° 0 mm 1 m/s 627 mmHg 59%
    12:00 +5°C° 0.3 mm 1 m/s 627 mmHg 62%
    13:00 +5°C° 0.3 mm 1 m/s 626 mmHg 65%
    14:00 +4°C° 0.3 mm 1 m/s 626 mmHg 68%
    15:00 +4°C° 0.8 mm 1 m/s 626 mmHg 72%
    16:00 +3°C° 0.8 mm 1 m/s 625 mmHg 75%
    17:00 +3°C° 0.8 mm 1 m/s 625 mmHg 78%
    18:00 +2°C° 0.7 mm 1 m/s 625 mmHg 81%
    19:00 +2°C° 0.7 mm 1 m/s 625 mmHg 84%
    20:00 +1°C° 0.7 mm 1 m/s 626 mmHg 87%
    21:00 +1°C° 0.7 mm 1 m/s 626 mmHg 90%
    22:00 +1°C° 0.7 mm 1 m/s 626 mmHg 93%
    23:00 +1°C° 0.7 mm 1 m/s 626 mmHg 95%

    28 Março, Quinta-feira

    Tempo Temperatura Precipitação Vento Pressão Humidade
    00:00 0°C° 1.1 mm 1 m/s 626 mmHg 96%
    01:00 0°C° 1.1 mm 1 m/s 626 mmHg 96%
    02:00 0°C° 1.1 mm 1 m/s 626 mmHg 96%
    03:00 -1°C° 0.6 mm 1 m/s 626 mmHg 96%
    04:00 -3°C° 0.6 mm 2 m/s 626 mmHg 95%
    05:00 -3°C° 0.6 mm 2 m/s 625 mmHg 94%
    06:00 -3°C° 0.2 mm 2 m/s 626 mmHg 94%
    07:00 -3°C° 0.2 mm 2 m/s 626 mmHg 93%
    08:00 -3°C° 0.2 mm 2 m/s 626 mmHg 92%
    09:00 -3°C° 0.2 mm 2 m/s 627 mmHg 90%
    10:00 -2°C° 0.2 mm 2 m/s 627 mmHg 88%
    11:00 -2°C° 0.2 mm 3 m/s 627 mmHg 86%
    12:00 -1°C° 0.1 mm 3 m/s 627 mmHg 82%
    13:00 -1°C° 0.1 mm 3 m/s 627 mmHg 79%
    14:00 0°C° 0.1 mm 3 m/s 627 mmHg 76%
    15:00 -1°C° 0.1 mm 3 m/s 627 mmHg 76%
    16:00 -1°C° 0.1 mm 3 m/s 627 mmHg 76%
    17:00 -1°C° 0.1 mm 3 m/s 626 mmHg 77%
    18:00 -2°C° 0.1 mm 3 m/s 626 mmHg 79%
    19:00 -4°C° 0.1 mm 3 m/s 626 mmHg 82%
    20:00 -5°C° 0.1 mm 3 m/s 626 mmHg 85%
    21:00 -5°C° 0 mm 3 m/s 627 mmHg 86%
    22:00 -6°C° 0 mm 3 m/s 627 mmHg 87%
    23:00 -6°C° 0 mm 2 m/s 627 mmHg 88%

    29 Março, Sexta-feira

    Tempo Temperatura Precipitação Vento Pressão Humidade
    00:00 -7°C° 0 mm 3 m/s 627 mmHg 89%
    01:00 -8°C° 0 mm 3 m/s 626 mmHg 90%
    02:00 -9°C° 0 mm 3 m/s 626 mmHg 91%
    03:00 -9°C° 0 mm 3 m/s 626 mmHg 91%
    04:00 -9°C° 0 mm 3 m/s 626 mmHg 90%
    05:00 -10°C° 0 mm 4 m/s 626 mmHg 90%
    06:00 -10°C° 0 mm 4 m/s 627 mmHg 84%
    07:00 -10°C° 0 mm 5 m/s 627 mmHg 79%
    08:00 -8°C° 0 mm 5 m/s 627 mmHg 73%
    09:00 -7°C° 0 mm 5 m/s 628 mmHg 68%
    10:00 -6°C° 0 mm 5 m/s 628 mmHg 63%
    11:00 -5°C° 0 mm 5 m/s 628 mmHg 58%
    12:00 -5°C° 0 mm 5 m/s 628 mmHg 56%
    13:00 -4°C° 0 mm 5 m/s 628 mmHg 54%
    14:00 -4°C° 0 mm 6 m/s 628 mmHg 53%
    15:00 -4°C° 0 mm 6 m/s 627 mmHg 53%
    16:00 -4°C° 0 mm 5 m/s 627 mmHg 54%
    17:00 -4°C° 0 mm 5 m/s 627 mmHg 54%
    18:00 -6°C° 0 mm 5 m/s 626 mmHg 60%
    19:00 -7°C° 0 mm 4 m/s 626 mmHg 65%
    20:00 -8°C° 0 mm 3 m/s 626 mmHg 70%
    21:00 -8°C° 0 mm 3 m/s 626 mmHg 70%
    22:00 -8°C° 0 mm 3 m/s 626 mmHg 70%
    23:00 -9°C° 0 mm 3 m/s 626 mmHg 71%

    30 Março, Sábado

    Tempo Temperatura Precipitação Vento Pressão Humidade
    00:00 -9°C° 0 mm 3 m/s 625 mmHg 68%
    01:00 -9°C° 0 mm 3 m/s 625 mmHg 66%
    02:00 -9°C° 0 mm 3 m/s 625 mmHg 63%
    03:00 -8°C° 0 mm 3 m/s 625 mmHg 63%
    04:00 -9°C° 0 mm 4 m/s 625 mmHg 64%
    05:00 -9°C° 0 mm 4 m/s 625 mmHg 64%
    06:00 -8°C° 0 mm 4 m/s 625 mmHg 62%
    07:00 -5°C° 0 mm 4 m/s 626 mmHg 60%
    08:00 -4°C° 0 mm 4 m/s 626 mmHg 58%
    09:00 -4°C° 0 mm 5 m/s 627 mmHg 57%
    10:00 -1°C° 0 mm 5 m/s 627 mmHg 57%
    11:00 0°C° 0 mm 5 m/s 627 mmHg 56%
    12:00 +1°C° 0 mm 5 m/s 627 mmHg 56%
    13:00 +1°C° 0 mm 5 m/s 627 mmHg 55%
    14:00 +2°C° 0 mm 5 m/s 626 mmHg 55%
    15:00 +2°C° 0 mm 5 m/s 626 mmHg 58%
    16:00 +1°C° 0 mm 5 m/s 625 mmHg 61%
    17:00 +1°C° 0 mm 5 m/s 625 mmHg 63%
    18:00 -1°C° 0 mm 4 m/s 624 mmHg 70%
    19:00 -2°C° 0 mm 3 m/s 624 mmHg 78%
    20:00 -3°C° 0 mm 2 m/s 623 mmHg 85%
    21:00 -3°C° 0 mm 2 m/s 623 mmHg 83%
    22:00 -4°C° 0 mm 2 m/s 623 mmHg 82%
    23:00 -4°C° 0 mm 2 m/s 623 mmHg 81%
    Mostrar mais